Аэропорт
Якутск (UEEE)

 UEEE / YKS
ЗЦ Хабаровск
Якутск (UEEE)
Якутск (UEEE)
 62.09330, 129.77100  / 325 ft

 UEEE 211530Z 27001MPS CAVOK M35/M39 Q1016 R23L/450150 NOSIG RMK QFE753
 TAF UEEE 211100Z 2112/2218 32003MPS 9999 SCT030 OVC070 TEMPO 2112/2117 3200 -SN BR TEMPO 2117/2203 0300 SN FG VV002
AIP 1605
показать схемы
Название сценария Тип сценария Flight Simulator 9 Flight Simulator X Prepar3D v2 Prepar3D v3 Prepar3D v4 xPlane
ueee-scenery-fs9-1404 бесплатный
ueee-scenery-fsx-1405 бесплатный
ueee-scenery-p3d-1405 бесплатный
ueee-scenery-xpl-1210 бесплатный
ueee-scenery-xpl-1407 бесплатный


2019 © VATRUS division (Privacy Policy)